DW4659 Weather Reports


time (UTC)temp
C
wind
direction
speed
KPH
gust
KPH
rain 1hr
cm
rain 24hr
cm
rain mn
cm
humidity
%
barometer
mb
20190422121548 11 325 0.0 3.2 0.00 0.00 0.00 92 1021.4
20190422120139 10 233 3.2 4.8 0.00 0.00 0.00 93 1021.2
20190422114557 11 224 0.0 4.8 0.00 0.03 0.00 92 1021.3
20190422113039 11 229 0.0 1.6 0.00 0.03 0.00 92 1021.3
20190422111613 11 234 0.0 3.2 0.00 0.03 0.00 92 1021.3
20190422110100 11 230 0.0 3.2 0.00 0.03 0.00 93 1021.2
20190422104552 11 81 0.0 0.0 0.00 0.05 0.00 94 1021.3
20190422103042 11 81 0.0 0.0 0.00 0.05 0.00 93 1021.3
20190422101623 11 224 0.0 0.0 0.00 0.05 0.00 93 1021.0
20190422100042 11 224 0.0 0.0 0.00 0.05 0.00 92 1021.0
20190422094552 11 224 0.0 0.0 0.00 0.13 0.00 91 1020.9
20190422093032 11 226 0.0 1.6 0.00 0.13 0.00 91 1020.6
20190422091518 11 250 0.0 3.2 0.00 0.13 0.00 90 1020.5
20190422090009 11 230 1.6 9.7 0.00 0.13 0.00 89 1020.4
20190422084512 12 203 1.6 4.8 0.00 0.13 0.00 89 1020.1
20190422083202 12 259 0.0 0.0 0.00 0.13 0.00 88 1019.9
20190422081648 12 259 0.0 0.0 0.00 0.13 0.00 87 1019.7
20190422080128 13 174 0.0 0.0 0.00 0.13 0.00 85 1019.6
20190422074722 13 106 0.0 6.4 0.00 0.13 0.00 85 1019.4
20190422073152 13 103 0.0 3.2 0.00 0.13 0.00 85 1019.1
20190422071706 13 250 0.0 0.0 0.00 0.13 0.00 85 1019.2
20190422070116 13 255 0.0 3.2 0.00 0.13 0.00 84 1019.2
20190422064619 13 107 0.0 0.0 0.00 0.13 0.00 84 1019.1
20190422063247 13 125 0.0 3.2 0.00 0.13 0.00 84 1019.0
20190422061617 13 250 0.0 3.2 0.00 0.13 0.00 84 1018.9
20190422060244 13 110 0.0 4.8 0.00 0.13 0.00 85 1019.1
20190422054624 13 127 0.0 4.8 0.00 0.13 0.00 85 1019.4
20190422053116 13 136 0.0 3.2 0.00 0.13 0.00 88 1019.4
20190422051640 12 205 0.0 11.3 0.00 0.13 0.00 89 1019.7
20190422050134 12 221 0.0 3.2 0.00 0.13 0.00 90 1019.5
20190422044704 12 243 0.0 11.3 0.00 0.13 0.00 90 1019.3
20190422043119 12 170 4.8 12.9 0.00 0.13 0.00 89 1019.3
20190422041713 12 250 4.8 16.1 0.00 0.13 0.00 88 1019.1
20190422040143 13 241 3.2 14.5 0.00 0.13 0.00 88 1019.1
20190422034638 13 229 0.0 11.3 0.00 0.13 0.00 87 1018.9
20190422033101 13 260 6.4 16.1 0.00 0.13 0.00 86 1018.9
20190422031629 13 218 4.8 11.3 0.00 0.13 0.00 86 1018.8
20190422030103 13 233 1.6 8.0 0.00 0.13 0.00 87 1018.7
20190422024605 13 224 1.6 8.0 0.00 0.13 0.00 87 1018.8
20190422023132 13 100 0.0 11.3 0.00 0.13 0.00 88 1018.8
20190422021636 12 253 1.6 17.7 0.00 0.13 0.00 88 1018.9
20190422020120 13 239 3.2 16.1 0.00 0.13 0.00 87 1019.0
20190422014549 13 148 4.8 17.7 0.00 0.13 0.00 86 1018.9
20190422013116 13 212 3.2 12.9 0.00 0.13 0.00 86 1018.7
20190422011541 13 223 1.6 11.3 0.00 0.13 0.00 85 1018.6
20190422010117 13 227 3.2 11.3 0.00 0.13 0.00 86 1018.6
20190422004630 13 229 3.2 12.9 0.00 0.13 0.00 85 1018.6
20190422003048 13 234 4.8 11.3 0.00 0.13 0.00 85 1018.5
20190422001558 13 203 4.8 14.5 0.00 0.13 0.00 86 1018.4
20190422000041 13 239 3.2 9.7 0.00 0.13 0.00 86 1018.7
20190421234607 13 231 3.2 11.3 0.00 0.13 0.00 87 1018.6
20190421233042 13 217 4.8 12.9 0.00 0.13 0.00 88 1018.5
20190421231536 13 145 0.0 3.2 0.00 0.13 0.00 91 1018.5
20190421230027 12 261 1.6 4.8 0.00 0.13 0.00 92 1018.5
20190421224548 12 241 1.6 11.3 0.00 0.13 0.00 93 1018.6
20190421223127 12 245 1.6 6.4 0.00 0.13 0.00 93 1018.5
20190421221556 12 237 0.0 6.4 0.00 0.13 0.00 94 1018.4
20190421220028 12 195 0.0 6.4 0.00 0.13 0.00 93 1018.1
20190421214520 -17 0.0 0.0 0.00 0.13 0.00 1018.2
20190421213017 -17 0.0 0.0 0.00 0.13 0.00 1017.9
20190421211520 -17 0.0 0.0 0.00 0.13 0.00 1017.7
20190421210003 -17 0.0 0.0 0.00 0.13 0.00 1017.5
20190421204729 -17 0.0 0.0 0.00 0.13 0.00 1017.5
20190421203140 -17 0.0 0.0 0.00 0.13 0.00 1017.3
20190421201654 -17 0.0 0.0 0.00 0.13 0.00 1017.2
20190421200214 -17 0.0 0.0 0.00 0.13 0.00 1017.1
20190421194634 -17 0.0 0.0 0.00 0.13 0.00 1016.9
20190421193153 -17 0.0 0.0 0.00 0.13 0.00 1017.0
20190421191557 -17 0.0 0.0 0.00 0.13 0.00 1016.7
20190421190059 -17 0.0 0.0 0.00 0.13 0.00 1016.4
20190421184622 -17 0.0 0.0 0.00 0.13 0.00 1016.4
20190421183056 -17 0.0 0.0 0.00 0.13 0.00 1016.3
20190421181532 -17 0.0 0.0 0.00 0.13 0.00 1016.2
20190421180022 -17 0.0 0.0 0.00 0.13 0.00 1016.3
20190421174508 -17 0.0 0.0 0.00 0.13 0.00 1016.3
20190421173013 -17 0.0 0.0 0.00 0.13 0.00 1016.2
20190421171722 11 49 0.0 1.6 0.00 0.13 0.00 95 1016.4
20190421170203 12 41 0.0 1.6 0.00 0.13 0.00 95 1016.5
20190421164655 12 37 0.0 1.6 0.00 0.13 0.00 95 1016.7
20190421163127 12 220 0.0 9.7 0.00 0.13 0.00 95 1016.8
20190421161628 12 200 1.6 9.7 0.00 0.13 0.00 94 1016.9
20190421160149 12 241 3.2 9.7 0.00 0.13 0.00 94 1017.0
20190421154638 13 248 0.0 9.7 0.00 0.13 0.00 94 1017.0
20190421153148 13 234 0.0 6.4 0.00 0.13 0.00 94 1017.0
20190421151612 13 223 1.6 11.3 0.00 0.13 0.00 93 1017.0
20190421150057 13 251 1.6 14.5 0.00 0.13 0.00 93 1017.1
20190421144547 13 250 0.0 3.2 0.00 0.13 0.00 93 1017.0
20190421143112 13 269 0.0 4.8 0.00 0.13 0.00 94 1017.2
20190421141610 13 126 1.6 8.0 0.00 0.13 0.00 94 1017.1
20190421140109 13 207 0.0 8.0 0.00 0.13 0.00 94 1016.8
20190421134539 13 223 0.0 4.8 0.00 0.13 0.13 94 1016.9
20190421133059 14 93 1.6 14.5 0.00 0.13 0.13 94 1016.8
20190421131638 14 213 6.4 14.5 0.00 0.13 0.13 94 1016.7
20190421130059 15 233 1.6 14.5 0.00 0.13 0.13 94 1016.6
20190421124528 15 186 6.4 12.9 0.00 0.13 0.13 95 1016.5
20190421123047 15 55 0.0 0.0 0.00 0.13 0.13 95 1016.2